Regional Weather Roundup
Issued by NWS Sterling, VA

Home | Current Version | Previous Version | Text Only | Print | Product List | Glossary Off
Versions: 1 2 3 4 5 6 7 8 9 10 11 12 13 14 15 16 17 18 19 20 21 22 23 24 25 26 27

000
ASUS41 KLWX 070610
RWRLWX

REGIONAL WEATHER ROUNDUP
NATIONAL WEATHER SERVICE BALTIMORE MD/WASHINGTON DC
100 AM EST WED DEC 07 2016

Note: "FAIR" indicates few or no clouds below 12,000 feet
with no significant weather and/or obstructions to visibility.
 TC=TEMPERATURE CELSIUS

 * =Non NWS site. Station does not report precipitation (e.g. rain,
    snow, etc.), thunder, or fog.

DCZ001-MDZ009-015-VAZ040>042-051-053>054-070700-
WASHINGTON METRO

CITY           SKY/WX    TMP DP  RH WIND       PRES   REMARKS
WASHINGTON NAT CLOUDY    45  43  93 N10       29.84S
DULLES         CLOUDY    40  39  97 NW9       29.86R FOG
ANDREWS AFB    CLOUDY    43  42  94 N7        29.80F
FT BELVOIR     CLOUDY    43  41  93 NW9       29.84R
QUANTICO       CLOUDY    43  40  89 NW10      29.86R
COLLEGE PARK*  CLOUDY    43  41  93 NW3       29.83S
LEESBURG*      CLOUDY    41  41 100 NW8       29.88R
MANASSAS*        N/A    N/A N/A N/A MISG        N/A
GAITHERSBURG*  CLOUDY    39  36  87 NW3       29.87S

$$

MDZ006>007-011-014-070700-
BALTIMORE METRO

CITY           SKY/WX    TMP DP  RH WIND       PRES   REMARKS
BWI AIRPORT    DRIZZLE   43  43 100 N3        29.82F
MD SCIENCE CTR   N/A     44  40  85 MISG      29.83S
ANNAPOLIS      CLOUDY    46  43  89 N7        29.81S
FORT MEADE*    CLOUDY    43  41  93 CALM      29.84F

$$

MDZ012-015-019>023-070700-
MARYLAND EASTERN SHORE

CITY           SKY/WX    TMP DP  RH WIND       PRES   REMARKS
OCEAN CITY     LGT RAIN  49  49 100 NE15G26   29.69R
SALISBURY      CLOUDY    49  47  93 N10       29.73R
BAY BRIDGE AP* CLOUDY    45  43  93 N9        29.82R
CAMBRIDGE*     CLOUDY    43  43 100 NW9       29.79R
EASTON*        CLOUDY    45  42  88 N10G16    29.84R

$$

MDZ017>025-070700-
SOUTHERN MARYLAND

CITY           SKY/WX    TMP DP  RH WIND       PRES   REMARKS
PATUXENT RIVER LGT RAIN  46  45  96 N14       29.80R FOG
ST INIGOES     LGT RAIN  47  45  93 VRB6      29.79R
LEONARDTOWN*   CLOUDY    45  43  93 CALM      29.81S

$$

MDZ003>005-070700-
NORTH CENTRAL MARYLAND

CITY           SKY/WX    TMP DP  RH WIND       PRES   REMARKS
FREDERICK*     CLOUDY    39  39 100 NE5       29.89R FOG
HAGERSTOWN APT CLOUDY    38  35  89 NW7       29.86R FOG
WESTMINSTER*   CLOUDY    37  37 100 N5        29.83F FOG

$$

MDZ501>502-070700-
WESTERN MARYLAND

CITY           SKY/WX    TMP DP  RH WIND       PRES   REMARKS
OAKLAND*       FOG       34  34 100 CALM      29.80R VSB 1/2
CUMBERLAND*    NOT AVBL

$$

VAZ025>031-070700-
SHENANDOAH VALLEY

CITY           SKY/WX    TMP DP  RH WIND       PRES   REMARKS
WINCHESTER*    CLOUDY    36  36 100 CALM      29.87R FOG
FRONT ROYAL*   CLOUDY    36  36 100 CALM      29.87R
LURAY*         CLOUDY    37  37 100 CALM      29.88R FOG
NEW MARKET*    CLOUDY    37  36  94 CALM      29.87R
STAUNTON*      CLOUDY    36  36  99 CALM      29.90R FOG
WAYNESBORO*    CLOUDY    36  34  95 CALM      29.86R

$$

WVZ021-048>050-054>055-070700-
EASTERN WEST VIRGINIA PANHANDLE

CITY           SKY/WX    TMP DP  RH WIND       PRES   REMARKS
MARTINSBURG    CLOUDY    37  37 100 CALM      29.87R FOG
PETERSBURG*    CLOUDY    37  37  98 CALM      29.89R FOG

$$

VAZ036>039-050-070700-
CENTRAL FOOTHILLS

CITY           SKY/WX    TMP DP  RH WIND       PRES   REMARKS
CHARLOTTESVILL CLOUDY    43  39  86 VRB3      29.87R
CULPEPER*      CLOUDY    42  40  93 CALM      29.88R
ORANGE*          N/A     43  43 100 CALM      29.88R
GORDONSVILLE*  CLOUDY    43  41  92 CALM      29.86R
WARRENTON*     CLOUDY    42  37  82 NW5       29.86R

$$

VAZ055>057-070700-
NORTH AND CENTRAL PIEDMONT

CITY           SKY/WX    TMP DP  RH WIND       PRES   REMARKS
FREDERICKSBRG* CLOUDY    43  43 100 NW5       29.85R
STAFFORD*      CLOUDY    41  41 100 NW7       29.89R

$$

NCZ024-NYZ072-PAZ021-071-VAZ022-071-070700-
OTHER REGIONAL OBSERVATIONS

CITY           SKY/WX    TMP DP  RH WIND       PRES   REMARKS
NEW YORK CITY  LGT RAIN  40  38  93 NE8       29.87F FOG
PHILADELPHIA   LGT RAIN  42  39  89 N16       29.82R
PITTSBURGH     CLOUDY    42  40  92 W17G25    29.85R FOG
ROANOKE        CLOUDY    43  40  89 N5        29.88S
RICHMOND       CLOUDY    43  42  97 NW9       29.83R
RALEIGH        CLOUDY    44  41  89 VRB3      29.89R

$$

ANZ530>537-070700-
MARINE OBSERVATIONS

STATION/POSITION TIME  TEMP    WIND        PRES
                       AIR SEA DIR/SP/G
                 (UTC) (F)     (DEG/KT/KT) (MB)
THOMAS PT LIGHT  0600   45 49  360/ 13/ 14   N/A
BALT KEY BRIDGE  0548   43     340/  7/  9 1010.1S
COVE POINT       0548   45     360/ 23/ 25 1009.6R
LEWISETTA        0548   47 48  350/ 11/ 16 1008.6R
SOLOMONS ISLAND  0542   46 50  330/ 10/ 13   N/A
PINEY POINT      0548          350/ 14/ 15   N/A

$$





USA.gov is the U.S. government's official web portal to all federal, state and local government web resources and services.